METAR

METAR LDZA 190400Z 00000KT CAVOK 15/15 Q1016 NOSIG =
METAR LDSP 190400Z 34004KT CAVOK 21/14 Q1014 NOSIG=
METAR LDDU 190400Z 07004KT 040V100 CAVOK 19/11 Q1015 NOSIG =
METAR LDZD 190400Z 15004KT CAVOK 17/15 Q1015 NOSIG =
METAR LDPL 190400Z VRB02KT CAVOK 15/12 Q1014 NOSIG=
METAR LDOS 190400Z 00000KT 7000 NSC 15/15 Q1015=
METAR LDRI 190400Z VRB01KT 9999 FEW060 21/17 Q1014=

TAF

TAF LDZA 182325Z 1900/2000 VRB02KT CAVOK
                 TX29/1913Z TN16/1903Z
    PROB30 TEMPO 1901/1906 1500 BCFG BKN001
           TEMPO 1912/1916 23007KT
    PROB30 TEMPO 1912/1917 VRB18KT -TSRA FEW035CB BKN040=
TAF LDSP 182325Z 1900/2000 32005KT CAVOK
                 TX30/1913Z TN21/1903Z
           BECMG 1909/1911 23010KT
    PROB30 TEMPO 1911/1914 -TSRA FEW040CB
           BECMG 1915/1917 VRB02KT=
TAF LDDU 182325Z 1900/2000 VRB02KT CAVOK
                 TX27/1913Z TN21/1903Z
           BECMG 1908/1910 26008KT
           BECMG 1918/1920 02014KT=
TAF LDZD 182325Z 1900/2000 VRB02KT CAVOK
                 TX30/1911Z TN16/1904Z
           TEMPO 1910/1917 30010KT=
TAF LDPL 182325Z 1900/2000 VRB02KT CAVOK
                 TX30/1913Z TN19/1903Z
           BECMG 1910/1912 27008KT
           BECMG 1916/1918 VRB02KT=
TAF LDOS 182325Z 1900/2000 VRB02KT CAVOK
                 TX31/1913Z TN18/1903Z
           BECMG 1910/1912 29008KT=
TAF AMD LDSB 181001Z 1810/1906 CNL=
TAF LDRI 182325Z 1900/2000 VRB02KT CAVOK
                 TX30/1913Z TN19/1903Z
           TEMPO 1912/1917 30007KT=

SIGMET

AIRMET

Napomena

Ukoliko se brzina i smjer vjetra ne mogu odrediti zbog privremenog kvara sustava/indikatora,
informacija o vjetru u METAR izvješću bit će prikazana kao "/////KT".

 

Disclaimer

 

In case of temporary system/sensor failure, wind speed and direction data will be represented as "/////KT" in METAR report.

 

         

      Politika MET podataka